Regional Weather Roundup
Issued by NWS Boston, MA

Home | Current Version | Previous Version | Text Only | Print | Product List | Glossary On
Versions: 1 2 3 4 5 6 7 8 9 10 11 12 13 14 15 16 17 18 19 20 21 22 23 24 25 26 27 28 29 30 31 32 33 34 35 36 37 38 39 40 41 42 43 44 45 46 47 48 49 50
000
ASUS41 KBOX 010310
RWRBOX

REGIONAL WEATHER ROUNDUP
NATIONAL WEATHER SERVICE TAUNTON MA
1100 PM EDT THU JUL 31 2014

NOTE:  "FAIR" INDICATES FEW OR NO CLOUDS BELOW 12,000 FEET WITH NO
SIGNIFICANT WEATHER AND/OR OBSTRUCTIONS TO VISIBILITY.  THE FOLLOWING
OBSERVATION LOCATIONS DO NOT REPORT PRESENT WEATHER...PROVINCETOWN...
SMITHFIELD...BLOCK ISLAND...KEENE...AND OXFORD.

MAZALL-010400-
EASTERN MASSACHUSETTS

CITY           SKY/WX    TMP DP  RH WIND       PRES   REMARKS
BOSTON         PTCLDY    70  60  70 SW15      30.16R
BEVERLY        PTCLDY    69  57  65 SW6       30.16R
LAWRENCE       MOCLDY    71  59  65 SW9       30.18R
BEDFORD        PTCLDY    68  61  78 SW7       30.15R
BLUE HILL        N/A     67  61  81 SW16      30.17S
NORWOOD        MOCLDY    65  60  84 S5        30.17R
MARSHFIELD     CLEAR     68  64  88 S3        30.19R
PLYMOUTH       CLEAR     67  61  81 S3        30.19R
TAUNTON        CLEAR     66  63  90 S3        30.17S
NEW BEDFORD    PTCLDY    66  64  93 SW5       30.18R
$$

MAZALL-010400-
CAPE COD AND THE ISLANDS

CITY           SKY/WX    TMP DP  RH WIND       PRES   REMARKS
FALMOUTH       PTCLDY    66  63  88 SW6       30.19S
HYANNIS        PTCLDY    70  62  76 SW9       30.18R
CHATHAM        PTCLDY    70  61  73 SW6       30.20R
PROVINCETOWN   CLEAR     68  64  88 SW10      30.18S
NANTUCKET      PTCLDY    64  62  93 SW5       30.19S
MARTHAS VNYRD  PTCLDY    67  62  84 SW7       30.19S
$$

MAZALL-010400-
CENTRAL AND WESTERN MASSACHUSETTS

CITY           SKY/WX    TMP DP  RH WIND       PRES   REMARKS
WORCESTER      MOCLDY    66  60  81 SW9       30.19R
FITCHBURG      PTCLDY    68  60  75 CALM      30.17R
ORANGE         PTCLDY    63  61  93 CALM      30.16S FOG
SPRINGFIELD    CLEAR     69  60  72 S7        30.15R
WESTFIELD      CLEAR     65  60  84 S9        30.14S
NORTH ADAMS    FOG       59  58  96 CALM      30.16S VSB 3/4
PITTSFIELD     PTCLDY    61  59  93 CALM      30.16R
$$

RIZALL-010400-
RHODE ISLAND

CITY           SKY/WX    TMP DP  RH WIND       PRES   REMARKS
PROVIDENCE     PTCLDY    67  62  84 S3        30.19R
NEWPORT        CLEAR     70  63  78 S6        30.19R
BLOCK ISLAND   PTCLDY    70  63  78 SW9       30.18S
SMITHFIELD     MOCLDY    66  57  72 S5        30.18S
WESTERLY       CLEAR     70  64  81 S3        30.18S
$$

CTZALL-010400-
CONNECTICUT

CITY           SKY/WX    TMP DP  RH WIND       PRES   REMARKS
BRADLEY INTL   MOCLDY    71  59  65 S8        30.14S
HARTFORD       CLEAR     69  61  75 S5        30.15S
BRIDGEPORT     PTCLDY    73  67  81 SW5       30.15S
DANBURY        CLEAR     69  62  78 CALM      30.16S
GROTON         PTCLDY    68  65  90 S6        30.17S
NEW HAVEN      CLEAR     72  65  78 CALM      30.16S
CHESTER        FAIR      68  63  83 S6        30.18S
MERIDEN        CLEAR     69  62  78 S3        30.16R
WILLIMANTIC    CLEAR     69  63  81 CALM      30.17S
OXFORD         CLEAR     66  61  82 SE3       30.18S
$$

MEZ002-015-021-024-NHZ003-005-008-011-012-014-VTZ005-008-010400-
NORTHERN NEW ENGLAND

CITY           SKY/WX    TMP DP  RH WIND       PRES   REMARKS
PORTLAND ME    PTCLDY    64  60  87 CALM      30.14R
BANGOR ME      PTCLDY    64  61  90 S10       30.14F
CONCORD NH     MOCLDY    64  63  96 CALM      30.15S
MANCHESTER NH  PTCLDY    66  64  93 SE5       30.14F
NASHUA NH      PTCLDY    66  65  97 CALM      30.16S
PORTSMOUTH NH  CLOUDY    67  63  89 W6        30.14R
JAFFREY NH     PTCLDY    61  60  97 CALM      30.18S FOG
KEENE NH       CLOUDY    63  55  77 CALM      30.17R VSB 1/4
BURLINGTON VT  PTCLDY    64  59  83 CALM      30.10R
MT. WASHINGTON FOG       45  45 100 W30         N/A  VSB 1/16
$$

NYZ052-076-010400-
EASTERN NEW YORK

CITY           SKY/WX    TMP DP  RH WIND       PRES   REMARKS
ALBANY         CLEAR     65  62  90 CALM      30.13R
NEW YORK CITY  PTCLDY    75  66  73 S8        30.13S
$$

ANZALL-010400-
MARINE OBSERVATIONS

STATION/POSITION TIME  TEMP    WIND        PRES    VSBY  WAVE
                       AIR SEA DIR/SP/G                  HT/PER
                 (UTC) (F)     (DEG/KT/KT) (MB)    (MI)  (FT/S)
BOSTON BUOY      NOT AVBL
BUZZARDS BAY     NOT AVBL
NANTUCKET SOUND  NOT AVBL
MASS BAY-STELLWA NOT AVBL
ISLE OF SHOALS   NOT AVBL
S OF BLOCK IS    NOT AVBL
$$

......................KEY.........................
  SKY/WX - SKY CONDITION/PRESENT WEATHER
  TMP    - TEMPERATURE IN FAHRENHEIT
  DWPT   - DEWPOINT IN FAHRENHEIT
  RH     - RELATIVE HUMIDITY IN PERCENT
  WIND   - DIRECTION AND SPEED IN MPH
  PRES   - MEAN SEA LEVEL PRESSURE IN INCHES OF HG
  WCI    - WIND CHILL INDEX
  VSB    - VISIBILITY IN MILES
  HX     - HEAT INDEX
  TC     - TEMPERATURE IN CELSIUS
  VRB    - VARIABLE WIND DIRECTION
  N/A    - NOT AVAILABLE



USA.gov is the U.S. government's official web portal to all federal, state and local government web resources and services.